Location: Unspecified
(45.6635°N, 122.4424°W)
Time: 11:25:35
(UTC+00:00)

CZ-3 Stage 3 - Visible Passes

Search period start: 23 July 2018 00:00
Search period end: 02 August 2018 00:00
Orbit: 388 x 34806 km, 30.7° (Epoch: 22 July)

Date Brightness Start Highest point End Pass type
(mag) Time Alt. Az. Time Alt. Az. Time Alt. Az.
23 Jul 9.3 03:49:14 10° E 04:14:34 11° E 04:35:46 10° ENE visible
23 Jul 6.4 07:53:31 10° SW 10:07:45 23° WSW 16:21:49 10° S visible
24 Jul 7.6 03:55:48 10° S 12:19:43 65° S 12:47:38 10° ESE daylight
25 Jul 8.4 02:21:40 10° ESE 07:45:25 50° ESE 09:05:02 10° E visible
26 Jul 9.2 03:31:50 10° E 04:03:23 11° E 04:28:50 10° ENE visible
26 Jul 6.4 07:41:17 10° SW 09:56:44 23° WSW 16:11:51 10° S visible
27 Jul 7.6 03:44:10 10° S 12:09:10 66° S 12:37:43 10° ESE daylight
28 Jul 8.4 02:07:11 10° ESE 07:33:52 50° ESE 08:55:03 10° E visible
29 Jul 9.2 03:15:25 10° E 03:52:07 11° E 04:20:55 10° ENE visible
29 Jul 6.4 07:29:08 10° SW 09:45:41 24° WSW 16:01:50 10° S visible
30 Jul 7.5 03:32:34 10° S 11:58:31 66° SSW 12:27:46 10° ESE daylight
31 Jul 8.3 01:52:44 10° ESE 07:22:14 51° ESE 08:45:00 10° E visible
01 Aug 9.2 02:59:38 10° E 03:40:47 12° ENE 04:12:21 10° ENE visible
01 Aug 6.4 07:17:01 10° SW 09:34:37 25° WSW 15:51:46 10° S visible
